Regional Weather Roundup
Issued by NWS

Home | Current Version | Previous Version | Graphics & Text | Print | Product List | Glossary On
Versions: 1 2 3 4 5 6 7 8 9 10 11 12 13 14 15 16 17 18 19 20 21 22 23 24 25 26 27 28 29 30 31 32 33 34 35 36 37 38 39 40 41 42 43 44 45 46 47 48 49 50
000
ASUS45 KTFX 261210
RWRMT
MONTANA REGIONAL WEATHER ROUNDUP
NATIONAL WEATHER SERVICE GREAT FALLS MT
600 AM MDT TUE SEP 26 2017

NOTE: "FAIR" INDICATES FEW OR NO CLOUDS BELOW 12000 FEET WITH NO
SIGNIFICANT WEATHER AND/OR OBSTRUCTIONS TO VISIBILITY.

MTZ001>007-043-261300-
WEST OF THE DIVIDE

CITY           SKY/WX    TMP DP  RH WIND       PRES   REMARKS
KALISPELL      FOG       39  39 100 CALM      30.14R VSB 1/4
MISSOULA       MOCLDY    46  45  96 CALM      30.16R
BUTTE          CLOUDY    41  39  93 CALM      30.18S
MULLAN PASS    CLOUDY    42  37  82 NW6       30.19R
ANACONDA         N/A     43  41  93 CALM      30.17S
DEER LODGE       N/A     45  45 100 CALM      30.19R
EUREKA           N/A     39  39 100 MISG      30.14R
HAMILTON         N/A     48  43  81 S8        30.16S
LIBBY            N/A     37  37 100 CALM      30.14R VSB 3/4
PLAINS           N/A     46  41  83 CALM      30.13R
RONAN            N/A     50  47  89 CALM      30.16S
$$

MTZ008-052>055-261300-
SOUTHWEST MONTANA

CITY           SKY/WX    TMP DP  RH WIND       PRES   REMARKS
BOZEMAN        CLOUDY    47  41  80 CALM      30.15S
DILLON         CLOUDY    42  37  82 S6        30.17R
W YELLOWSTONE  CLOUDY    36  30  80 CALM      30.20R
ENNIS          CLOUDY    43  39  87 CALM      30.21S
THREE FORKS      N/A     45  42  89 CALM      30.13R
TWIN BRIDGES     N/A     43  37  79 CALM      30.13R
$$

MTZ009-010-012-014-046-048-049-054-261300-
EAST SLOPES AND CENTRAL MONTANA

CITY           SKY/WX    TMP DP  RH WIND       PRES   REMARKS
CUT BANK       MOCLDY    45  40  82 W9        30.06S
GREAT FALLS    CLOUDY    49  40  71 SW9       30.09R
MALMSTROM AFB  CLOUDY    51  41  69 SW10      30.09R
HELENA         MOCLDY    44  42  93 NW3       30.13R
BOWMANS CRNR     N/A     41  38  88 S10       30.09R
CHOTEAU          N/A     45  39  81 SW7       30.09S
FAIRFIELD      MOCLDY    44  38  78 CALM      30.08S
POWER          CLOUDY    44  38  81 SW3       30.07S
RAYNESFORD     MOCLDY    48  39  72 E3        30.10R
ULM            MOCLDY    47  41  80 S8        30.10R
$$

MTZ011-013-016-021-045-047-050-051-261300-
NORTH CENTRAL MONTANA

CITY           SKY/WX    TMP DP  RH WIND       PRES   REMARKS
HAVRE          CLOUDY    51  40  65 SW7       30.03R
LEWISTOWN      CLOUDY    41  34  76 SE7       30.09R
N BAR RANCH    CLOUDY    39  30  70 NW3       30.11S
CHINOOK          N/A     45  41  87 E5        30.03S
DENTON           N/A     45  38  77 S9        30.04S
GEYSER         MOCLDY    47  40  77 SW8       30.09R
JUDITH GAP     MOCLDY    43  34  72 SW8       30.10R
WINIFRED       MOCLDY    49  37  62 W6        30.06S
$$

MTZ017>020-022>027-061-062-261300-
NORTHEAST MONTANA

CITY           SKY/WX    TMP DP  RH WIND       PRES   REMARKS
GLASGOW        CLEAR     36  36 100 E9        30.08S WCI  29
JORDAN           N/A     32  29  88 CALM      30.08S
SIDNEY           N/A    N/A N/A N/A MISG        N/A
WOLF POINT     CLOUDY    44  43  96 CALM      30.10F
MALTA          MOCLDY    37  36  93 NE3       30.06S
PLENTYWOOD       N/A     46  46 100 CALM      30.09F
POPLAR           N/A     45  43  93 CALM      30.10S
SCOBEY           N/A     31  25  78 CALM      30.07R
$$

MTZ028>42-056>058-261300-
SOUTHCENTRAL AND SOUTHEAST MONTANA

CITY           SKY/WX    TMP DP  RH WIND       PRES   REMARKS
BAKER          CLOUDY    43  40  89 CALM      30.08S
BILLINGS       PTCLDY    47  37  68 SW10      30.10R
LIVINGSTON     CLOUDY    44  39  82 NW8       30.13R
MILES CITY     FOG       38  37  97 NW3       30.09R VSB 1/2
BIG TIMBER     PTCLDY    46  37  71 W16       30.13S
EKALAKA          N/A     40  36  86 SE2       30.04S
HARLOWTON      CLOUDY    44  39  83 MISG      30.10S
LAUREL           N/A     43  37  81 CALM      30.11S
$$

REGIONAL REPORTS...DAKOTAS

CITY           SKY/WX    TMP DP  RH WIND       PRES   REMARKS
WILLISTON      CLOUDY    47  46  97 CALM      30.10S
MINOT          CLOUDY    49  44  83 SW6       30.09F
DICKINSON      CLOUDY    44  44 100 CALM      30.06S
BEACH          CLOUDY    43  45 100 MISG      30.11R
CROSBY         CLOUDY    45  45 100 CALM      30.11S
TIOGA          CLOUDY    45  45 100 E3        30.11S FOG
WATFORD CITY   CLOUDY    45  45 100 CALM      30.09S
BISMARCK       CLOUDY    48  45  89 CALM      30.12R
GRAND FORKS    LGT RAIN  49  49 100 N9        30.06R
FARGO          LGT RAIN  50  50 100 NW6       30.04R
BUFFALO SD       N/A     43  42  97 W5        30.01S
RAPID CITY     CLEAR     39  37  93 SE5       30.09
$$

REGIONAL REPORTS...WYOMING/IDAHO/WASHINGTON

CITY           SKY/WX    TMP DP  RH WIND       PRES   REMARKS
GILLETTE       CLEAR     40  37  89 SW15      30.09R
SHERIDAN       MOCLDY    34  32  92 CALM      30.09R
BUFFALO WY     CLEAR     40  26  57 MISG      30.11R
CODY           CLEAR     34  31  88 CALM      30.15S
IDAHO FALLS    CLOUDY    40  37  89 CALM      30.18R
SALMON         CLOUDY    44  42  93 CALM      30.19R
BOISE          CLOUDY    51  39  63 SE3       30.11R
SPOKANE        PTCLDY    49  44  83 SE7       30.13R
$$

REGIONAL REPORTS...ALBERTA

CITY           SKY/WX    TMP DP  RH WIND       PRES   REMARKS
EDMONTON       CLEAR     52  46  82 W7        29.99R
CALGARY        MOCLDY    54  39  58 NW8       30.06R
LETHBRIDGE     PTCLDY    48  39  71 SW8       30.03R
MEDICINE HAT   CLOUDY    45  36  70 S3        30.00S
$$

REGIONAL REPORTS...SASKATCHEWAN

CITY           SKY/WX    TMP DP  RH WIND       PRES   REMARKS
SWIFT CURRENT  CLOUDY    45  36  70 S12       30.00R
REGINA         MOCLDY    36  34  93 SE8       30.08F FOG     WCI  29
SASKATOON      MOCLDY    46  37  71 S7        30.00S
$$



USA.gov is the U.S. government's official web portal to all federal, state and local government web resources and services.